timestamp,wind_dir_avg,wind_spd_avg,wind_spd_max_dir,wind_spd_gust,battery_voltage,lat,long
2021-04-12 00:04:01+00:00,160.0,3.67,162.0,4.26,12.65,47.59359,-54.27349
2021-04-12 00:14:01+00:00,162.0,4.27,163.0,4.66,12.57,47.59359,-54.27349
2021-04-12 00:24:01+00:00,152.0,4.17,154.0,4.75,12.57,47.59359,-54.27349
2021-04-12 00:34:01+00:00,142.0,3.7,153.0,4.88,12.57,47.59359,-54.27349
2021-04-12 00:44:01+00:00,157.0,4.82,160.0,5.91,12.57,47.59359,-54.27349
2021-04-12 00:54:01+00:00,139.0,4.27,142.0,4.76,12.57,47.59359,-54.27349
2021-04-12 01:04:01+00:00,127.0,3.7,138.0,4.57,12.57,47.59359,-54.27349
2021-04-12 01:14:01+00:00,119.0,3.53,124.0,4.48,12.49,47.59359,-54.27349
2021-04-12 01:24:01+00:00,93.0,2.8,102.0,4.23,12.49,47.59359,-54.27349
2021-04-12 01:34:01+00:00,107.0,2.84,108.0,4.39,12.49,47.59359,-54.27349
2021-04-12 01:44:01+00:00,108.0,2.85,159.0,5.19,12.49,47.59359,-54.27349
2021-04-12 01:54:01+00:00,132.0,3.97,135.0,4.81,12.49,47.59359,-54.27349
2021-04-12 02:04:01+00:00,101.0,1.48,110.0,2.45,12.49,47.59359,-54.27349
2021-04-12 02:14:01+00:00,131.0,2.88,140.0,4.22,12.49,47.59359,-54.27349
2021-04-12 02:24:01+00:00,148.0,2.08,161.0,2.81,12.49,47.59359,-54.27349
2021-04-12 02:34:01+00:00,125.0,3.7,115.0,4.44,12.49,47.59359,-54.27349
2021-04-12 02:44:01+00:00,100.0,1.71,127.0,2.81,12.49,47.59359,-54.27349
2021-04-12 02:54:01+00:00,358.0,1.3,358.0,1.87,12.49,47.59359,-54.27349
2021-04-12 03:04:01+00:00,146.0,0.62,143.0,1.13,12.49,47.59359,-54.27349
2021-04-12 03:14:01+00:00,112.0,2.67,111.0,4.1,12.49,47.59359,-54.27349
2021-04-12 03:24:01+00:00,118.0,2.01,123.0,2.61,12.49,47.59359,-54.27349
2021-04-12 03:34:01+00:00,128.0,0.85,102.0,1.39,12.49,47.59359,-54.27349
2021-04-12 03:44:01+00:00,94.0,1.35,91.0,2.25,12.49,47.59359,-54.27349
2021-04-12 03:54:01+00:00,92.0,1.68,103.0,2.29,12.49,47.59359,-54.27349
2021-04-12 04:04:01+00:00,43.0,1.85,42.0,2.14,12.49,47.59359,-54.27349
2021-04-12 04:14:01+00:00,67.0,1.75,83.0,2.36,12.41,47.59359,-54.27349
2021-04-12 04:24:01+00:00,57.0,2.11,55.0,2.37,12.41,47.59359,-54.27349
2021-04-12 04:34:01+00:00,87.0,1.48,73.0,2.23,12.41,47.59359,-54.27349
2021-04-12 04:44:01+00:00,100.0,1.39,119.0,2.32,12.41,47.59359,-54.27349
2021-04-12 04:54:01+00:00,100.0,2.1,109.0,2.62,12.41,47.59359,-54.27349
2021-04-12 05:04:01+00:00,104.0,1.61,100.0,1.99,12.41,47.59359,-54.27349
2021-04-12 05:14:01+00:00,66.0,2.95,72.0,3.45,12.41,47.59359,-54.27349
2021-04-12 05:24:01+00:00,103.0,2.46,109.0,3.59,12.41,47.59359,-54.27349
2021-04-12 05:34:01+00:00,91.0,2.34,95.0,3.44,12.41,47.59359,-54.27349
2021-04-12 05:44:01+00:00,90.0,2.45,90.0,3.94,12.41,47.59359,-54.27349
2021-04-12 05:54:01+00:00,78.0,2.6,73.0,3.15,12.41,47.59359,-54.27349
2021-04-12 06:04:01+00:00,57.0,4.84,58.0,5.09,12.41,47.59359,-54.27349
2021-04-12 06:14:01+00:00,60.0,5.0,60.0,5.42,12.41,47.59359,-54.27349
2021-04-12 06:24:01+00:00,73.0,6.73,78.0,10.06,12.41,47.59359,-54.27349
2021-04-12 06:34:01+00:00,59.0,3.83,54.0,4.43,12.41,47.59359,-54.27349
2021-04-12 06:44:01+00:00,64.0,4.61,62.0,5.26,12.41,47.59359,-54.27349
2021-04-12 06:54:01+00:00,56.0,4.83,54.0,5.4,12.41,47.59359,-54.27349
2021-04-12 07:04:01+00:00,44.0,5.79,45.0,6.64,12.41,47.59359,-54.27349
2021-04-12 07:14:01+00:00,46.0,5.15,44.0,5.83,12.33,47.59359,-54.27349
2021-04-12 07:24:01+00:00,33.0,6.28,31.0,6.67,12.33,47.59359,-54.27349
2021-04-12 07:34:01+00:00,47.0,5.78,61.0,7.87,12.33,47.59359,-54.27349
2021-04-12 07:44:01+00:00,28.0,5.64,36.0,6.79,12.33,47.59359,-54.27349
2021-04-12 07:54:01+00:00,30.0,6.25,34.0,6.66,12.33,47.59359,-54.27349
2021-04-12 08:04:01+00:00,24.0,6.21,23.0,6.91,12.33,47.59359,-54.27349
2021-04-12 08:14:01+00:00,28.0,6.5,25.0,6.93,12.33,47.59359,-54.27349
2021-04-12 08:24:01+00:00,31.0,5.67,32.0,6.53,12.33,47.59359,-54.27349
2021-04-12 08:34:01+00:00,32.0,5.63,34.0,6.45,12.33,47.59359,-54.27349
2021-04-12 08:44:01+00:00,39.0,5.2,43.0,5.76,12.33,47.59359,-54.27349
2021-04-12 08:54:01+00:00,33.0,5.08,34.0,5.62,12.33,47.59359,-54.27349
2021-04-12 09:04:01+00:00,27.0,5.2,27.0,5.74,12.33,47.59359,-54.27349
2021-04-12 09:14:01+00:00,30.0,4.76,33.0,5.2,12.25,47.59359,-54.27349
2021-04-12 09:24:01+00:00,28.0,5.78,24.0,6.55,12.25,47.59359,-54.27349
2021-04-12 09:34:01+00:00,23.0,5.81,25.0,6.36,12.25,47.59359,-54.27349
2021-04-12 09:44:01+00:00,29.0,5.56,30.0,5.92,12.25,47.59359,-54.27349
2021-04-12 09:54:01+00:00,35.0,5.21,35.0,5.69,12.25,47.59359,-54.27349
2021-04-12 10:04:01+00:00,32.0,4.5,32.0,4.82,12.25,47.59359,-54.27349
2021-04-12 10:14:01+00:00,34.0,4.03,35.0,4.27,12.49,47.59359,-54.27349
2021-04-12 10:24:01+00:00,28.0,3.02,29.0,3.24,12.49,47.59359,-54.27349
2021-04-12 10:34:01+00:00,34.0,3.7,35.0,4.12,12.49,47.59359,-54.27349
2021-04-12 10:44:01+00:00,35.0,3.76,36.0,4.1,12.49,47.59359,-54.27349
2021-04-12 10:54:01+00:00,34.0,3.29,31.0,3.71,12.49,47.59359,-54.27349
2021-04-12 11:04:01+00:00,31.0,3.4,36.0,4.1,12.49,47.59359,-54.27349
2021-04-12 11:14:01+00:00,35.0,4.86,35.0,5.4,13.13,47.59359,-54.27349
2021-04-12 11:24:01+00:00,38.0,3.98,36.0,4.35,13.13,47.59359,-54.27349
2021-04-12 11:34:01+00:00,36.0,3.98,37.0,4.32,13.13,47.59359,-54.27349
2021-04-12 11:44:01+00:00,39.0,3.86,40.0,4.29,13.13,47.59359,-54.27349
2021-04-12 11:54:01+00:00,28.0,3.12,31.0,3.65,13.13,47.59359,-54.27349
2021-04-12 12:04:01+00:00,40.0,3.23,44.0,3.46,13.13,47.59359,-54.27349
2021-04-12 12:14:01+00:00,42.0,3.41,43.0,3.68,13.68,47.59359,-54.27349
2021-04-12 12:24:01+00:00,38.0,3.68,37.0,3.96,13.68,47.59359,-54.27349
2021-04-12 12:34:01+00:00,35.0,4.18,34.0,4.53,13.68,47.59359,-54.27349
2021-04-12 12:44:01+00:00,36.0,3.82,37.0,4.07,13.68,47.59359,-54.27349
2021-04-12 12:54:01+00:00,32.0,3.71,33.0,4.04,13.68,47.59359,-54.27349
2021-04-12 13:04:01+00:00,48.0,3.76,47.0,4.11,13.68,47.59359,-54.27349
2021-04-12 13:14:01+00:00,66.0,4.19,71.0,4.59,13.37,47.59359,-54.27349
2021-04-12 13:24:01+00:00,59.0,3.25,58.0,4.15,13.37,47.59359,-54.27349
2021-04-12 13:34:01+00:00,42.0,3.58,45.0,4.41,13.37,47.59359,-54.27349
2021-04-12 13:44:01+00:00,40.0,4.41,41.0,5.11,13.37,47.59359,-54.27349
2021-04-12 13:54:01+00:00,25.0,4.91,18.0,6.03,13.37,47.59359,-54.27349
2021-04-12 14:04:01+00:00,18.0,5.7,18.0,6.39,13.37,47.59359,-54.27349
2021-04-12 14:14:01+00:00,45.0,4.25,46.0,5.12,13.29,47.59359,-54.27349
2021-04-12 14:24:01+00:00,37.0,6.37,40.0,7.24,13.29,47.59359,-54.27349
2021-04-12 14:34:01+00:00,43.0,7.9,43.0,8.82,13.29,47.59359,-54.27349
2021-04-12 14:44:01+00:00,53.0,5.84,56.0,6.74,13.29,47.59359,-54.27349
2021-04-12 14:54:01+00:00,60.0,6.37,58.0,7.79,13.29,47.59359,-54.27349
2021-04-12 15:04:01+00:00,50.0,8.64,47.0,9.77,13.29,47.59359,-54.27349
2021-04-12 15:14:01+00:00,41.0,8.78,46.0,9.81,13.84,47.59359,-54.27349
2021-04-12 15:24:01+00:00,42.0,8.5,41.0,9.78,13.84,47.59359,-54.27349
2021-04-12 15:34:01+00:00,43.0,9.83,46.0,11.14,13.84,47.59359,-54.27349
2021-04-12 15:44:01+00:00,46.0,9.63,45.0,11.06,13.84,47.59359,-54.27349
2021-04-12 15:54:01+00:00,51.0,9.51,53.0,10.68,13.84,47.59359,-54.27349
2021-04-12 16:04:01+00:00,47.0,9.76,45.0,10.57,13.84,47.59359,-54.27349
2021-04-12 16:14:01+00:00,48.0,10.1,60.0,11.91,13.6,47.59359,-54.27349
2021-04-12 16:24:01+00:00,47.0,10.06,51.0,11.27,13.6,47.59359,-54.27349
2021-04-12 16:34:01+00:00,40.0,9.55,39.0,10.67,13.6,47.59359,-54.27349
2021-04-12 16:44:01+00:00,39.0,8.7,39.0,9.44,13.6,47.59359,-54.27349
2021-04-12 16:54:01+00:00,43.0,10.1,39.0,11.42,13.6,47.59359,-54.27349
2021-04-12 17:04:01+00:00,44.0,9.0,43.0,9.94,13.6,47.59359,-54.27349
2021-04-12 17:14:01+00:00,47.0,9.06,45.0,9.98,13.68,47.59359,-54.27349
2021-04-12 17:24:01+00:00,49.0,8.45,49.0,9.12,13.68,47.59359,-54.27349
2021-04-12 17:34:01+00:00,46.0,9.24,43.0,10.15,13.68,47.59359,-54.27349
2021-04-12 17:44:01+00:00,39.0,9.63,40.0,10.47,13.68,47.59359,-54.27349
2021-04-12 17:54:01+00:00,43.0,10.36,46.0,11.16,13.68,47.59359,-54.27349
2021-04-12 18:04:01+00:00,35.0,11.75,34.0,13.43,13.68,47.59359,-54.27349
2021-04-12 18:14:01+00:00,34.0,12.55,34.0,13.97,13.6,47.59359,-54.27349
2021-04-12 18:24:01+00:00,31.0,10.1,34.0,11.17,13.6,47.59359,-54.27349
2021-04-12 18:34:01+00:00,40.0,8.24,38.0,9.1,13.6,47.59359,-54.27349
2021-04-12 18:44:01+00:00,34.0,9.07,38.0,10.11,13.6,47.59359,-54.27349
2021-04-12 18:54:01+00:00,42.0,11.01,39.0,12.06,13.6,47.59359,-54.27349
2021-04-12 19:04:01+00:00,35.0,12.42,37.0,13.8,13.6,47.59359,-54.27349
2021-04-12 19:14:01+00:00,36.0,11.8,38.0,12.96,13.21,47.59359,-54.27349
2021-04-12 19:24:01+00:00,42.0,10.79,47.0,12.27,13.21,47.59359,-54.27349
2021-04-12 19:34:01+00:00,48.0,11.25,47.0,12.94,13.21,47.59359,-54.27349
2021-04-12 19:44:01+00:00,47.0,11.82,43.0,13.67,13.21,47.59359,-54.27349
2021-04-12 19:54:01+00:00,51.0,11.47,51.0,13.11,13.21,47.59359,-54.27349
2021-04-12 20:04:01+00:00,55.0,11.46,55.0,13.02,13.21,47.59359,-54.27349
2021-04-12 20:14:01+00:00,52.0,9.56,52.0,10.82,12.81,47.59359,-54.27349
2021-04-12 20:24:01+00:00,56.0,9.85,56.0,11.09,12.81,47.59359,-54.27349
2021-04-12 20:34:01+00:00,61.0,9.21,58.0,10.99,12.81,47.59359,-54.27349
2021-04-12 20:44:01+00:00,60.0,11.18,59.0,12.83,12.81,47.59359,-54.27349
2021-04-12 20:54:01+00:00,59.0,12.06,61.0,13.72,12.81,47.59359,-54.27349
2021-04-12 21:04:01+00:00,57.0,12.69,58.0,14.52,12.81,47.59359,-54.27349
2021-04-12 21:14:01+00:00,55.0,13.42,52.0,16.22,12.81,47.59359,-54.27349
2021-04-12 21:24:01+00:00,58.0,11.71,62.0,13.19,12.81,47.59359,-54.27349
2021-04-12 21:34:01+00:00,63.0,11.86,62.0,14.09,12.81,47.59359,-54.27349
2021-04-12 21:44:01+00:00,67.0,12.46,69.0,14.88,12.81,47.59359,-54.27349
2021-04-12 21:54:01+00:00,65.0,13.03,62.0,14.81,12.81,47.59359,-54.27349
2021-04-12 22:04:01+00:00,67.0,13.58,71.0,15.85,12.81,47.59359,-54.27349
2021-04-12 22:14:01+00:00,65.0,12.97,68.0,14.81,12.57,47.59359,-54.27349
2021-04-12 22:24:01+00:00,67.0,12.95,70.0,14.22,12.57,47.59359,-54.27349
2021-04-12 22:34:01+00:00,61.0,12.6,62.0,13.93,12.57,47.59359,-54.27349
2021-04-12 22:44:01+00:00,59.0,13.55,61.0,15.65,12.57,47.59359,-54.27349
2021-04-12 22:54:01+00:00,64.0,12.92,62.0,14.38,12.57,47.59359,-54.27349
2021-04-12 23:04:01+00:00,63.0,12.7,64.0,14.0,12.57,47.59359,-54.27349
2021-04-12 23:14:01+00:00,66.0,12.65,63.0,14.83,12.57,47.59359,-54.27349
2021-04-12 23:24:01+00:00,63.0,13.36,59.0,14.88,12.57,47.59359,-54.27349
2021-04-12 23:34:01+00:00,62.0,13.22,61.0,15.14,12.57,47.59359,-54.27349
2021-04-12 23:44:01+00:00,65.0,12.75,64.0,14.28,12.57,47.59359,-54.27349
2021-04-12 23:54:01+00:00,62.0,12.83,61.0,15.1,12.57,47.59359,-54.27349
